User: anonymous   Login
Location: Observatorio Las Palmas
(29.0667°N, 110.9333°W)
Time: 09:55:17
(UTC-07:00)
Language:

NOAA 19 - Orbit

View from above orbital plane
View from above orbital plane
View from above satellite
View from above satellite

Ground track
Ground track

The orbit data is extracted from the following two-line orbital elements,

1 33591U 09005A   15240.16301083  .00000137  00000-0  99770-4 0  9996
2 33591 098.9956 190.2359 0013596 331.8274 028.2161 14.11970569337646
Epoch (UTC): 28 August 2015 03:54:44
Eccentricity: 0.0013596
inclination: 98.9956°
perigee height: 843 km
apogee height: 862 km
right ascension of ascending node: 190.2359°
argument of perigee: 331.8274°
revolutions per day: 14.11970569
mean anomaly at epoch: 28.2161°
orbit number at epoch: 33764

The dashed part of the orbit path shows where the satellite is in the earth's shadow,  

DLR